owner,sensor,date,latitude,longitude,vertical_datum,wind_speed,wind_to_direction,wind_speed_of_gust,qcFlag 
COMPS,ioos:station:USF.COMPS:TAR:1,2013-01-01T02:00:00Z,28.1560,-82.7580,7.0,1.0,40.0,,'1111122,1111122,1111122' 
COMPS,ioos:station:USF.COMPS:TAR:1,2013-01-01T04:00:00Z,28.1560,-82.7580,7.0,0.5,30.0,,'1111122,1111122,1111122' 
COMPS,ioos:station:USF.COMPS:TAR:1,2013-01-01T06:00:00Z,28.1560,-82.7580,7.0,1.0,50.0,,'1111122,1111122,1111122' 
COMPS,ioos:station:USF.COMPS:TAR:1,2013-01-01T10:00:00Z,28.1560,-82.7580,7.0,1.0,140.0,,'1111122,1111122,1111122' 
COMPS,ioos:station:USF.COMPS:TAR:1,2013-01-01T11:00:00Z,28.1560,-82.7580,7.0,0.5,120.0,,'1111122,1111122,1111122' 
COMPS,ioos:station:USF.COMPS:TAR:1,2013-01-01T14:00:00Z,28.1560,-82.7580,7.0,1.0,150.0,,'1111122,1111122,1111122' 
COMPS,ioos:station:USF.COMPS:TAR:1,2013-01-01T15:00:00Z,28.1560,-82.7580,7.0,1.5,150.0,,'1111122,1111122,1111122' 
COMPS,ioos:station:USF.COMPS:TAR:1,2013-01-01T16:00:00Z,28.1560,-82.7580,7.0,2.6,160.0,,'1111122,1111122,1111122' 
COMPS,ioos:station:USF.COMPS:TAR:1,2013-01-01T17:00:00Z,28.1560,-82.7580,7.0,2.6,140.0,,'1111122,1111122,1111122' 
COMPS,ioos:station:USF.COMPS:TAR:1,2013-01-01T18:00:00Z,28.1560,-82.7580,7.0,4.6,180.0,,'1111122,1111122,1111122' 
COMPS,ioos:station:USF.COMPS:TAR:1,2013-01-01T19:00:00Z,28.1560,-82.7580,7.0,4.1,190.0,,'1111122,1111122,1111122' 
COMPS,ioos:station:USF.COMPS:TAR:1,2013-01-01T20:00:00Z,28.1560,-82.7580,7.0,3.1,210.0,,'1111122,1111122,1111122' 
COMPS,ioos:station:USF.COMPS:TAR:1,2013-01-01T21:00:00Z,28.1560,-82.7580,7.0,3.1,220.0,,'1111122,1111122,1111122' 
COMPS,ioos:station:USF.COMPS:TAR:1,2013-01-01T22:00:00Z,28.1560,-82.7580,7.0,2.1,210.0,,'1111122,1111122,1111122' 
COMPS,ioos:station:USF.COMPS:TAR:1,2013-01-01T23:00:00Z,28.1560,-82.7580,7.0,1.0,200.0,,'1111122,1111122,1111122' 
COMPS,ioos:station:USF.COMPS:TAR:1,2013-01-02T01:00:00Z,28.1560,-82.7580,7.0,1.0,160.0,,'1111122,1111122,1111122' 
COMPS,ioos:station:USF.COMPS:TAR:1,2013-01-02T05:00:00Z,28.1560,-82.7580,7.0,0.5,180.0,,'1111122,1111122,1111122' 
COMPS,ioos:station:USF.COMPS:TAR:1,2013-01-02T08:00:00Z,28.1560,-82.7580,7.0,1.0,170.0,,'1111122,1111122,1111122' 
COMPS,ioos:station:USF.COMPS:TAR:1,2013-01-02T09:00:00Z,28.1560,-82.7580,7.0,1.0,190.0,,'1111122,1111122,1111122' 
COMPS,ioos:station:USF.COMPS:TAR:1,2013-01-02T13:00:00Z,28.1560,-82.7580,7.0,0.5,130.0,,'1111122,1111122,1111122' 
COMPS,ioos:station:USF.COMPS:TAR:1,2013-01-02T14:00:00Z,28.1560,-82.7580,7.0,1.0,140.0,,'1111122,1111122,1111122' 
COMPS,ioos:station:USF.COMPS:TAR:1,2013-01-02T15:00:00Z,28.1560,-82.7580,7.0,2.6,200.0,,'1111122,1111122,1111122' 
COMPS,ioos:station:USF.COMPS:TAR:1,2013-01-02T16:00:00Z,28.1560,-82.7580,7.0,2.6,210.0,,'1111122,1111122,1111122' 
COMPS,ioos:station:USF.COMPS:TAR:1,2013-01-02T17:00:00Z,28.1560,-82.7580,7.0,3.1,200.0,,'1111122,1111122,1111122' 
COMPS,ioos:station:USF.COMPS:TAR:1,2013-01-02T18:00:00Z,28.1560,-82.7580,7.0,3.6,200.0,,'1111122,1111122,1111122' 
COMPS,ioos:station:USF.COMPS:TAR:1,2013-01-02T19:00:00Z,28.1560,-82.7580,7.0,3.6,210.0,,'1111122,1111122,1111122' 
COMPS,ioos:station:USF.COMPS:TAR:1,2013-01-02T20:00:00Z,28.1560,-82.7580,7.0,3.1,210.0,,'1111122,1111122,1111122' 
COMPS,ioos:station:USF.COMPS:TAR:1,2013-01-02T21:00:00Z,28.1560,-82.7580,7.0,2.6,210.0,,'1111122,1111122,1111122' 
COMPS,ioos:station:USF.COMPS:TAR:1,2013-01-02T22:00:00Z,28.1560,-82.7580,7.0,2.6,210.0,,'1111122,1111122,1111122' 
COMPS,ioos:station:USF.COMPS:TAR:1,2013-01-02T23:00:00Z,28.1560,-82.7580,7.0,1.5,210.0,,'1111122,1111122,1111122' 
COMPS,ioos:station:USF.COMPS:TAR:1,2013-01-03T00:00:00Z,28.1560,-82.7580,7.0,0.5,220.0,,'1111122,1111122,1111122' 
COMPS,ioos:station:USF.COMPS:TAR:1,2013-01-03T01:00:00Z,28.1560,-82.7580,7.0,0.5,220.0,,'1111122,1111122,1111122' 
COMPS,ioos:station:USF.COMPS:TAR:1,2013-01-03T02:00:00Z,28.1560,-82.7580,7.0,1.0,240.0,,'1111122,1111122,1111122' 
COMPS,ioos:station:USF.COMPS:TAR:1,2013-01-03T03:00:00Z,28.1560,-82.7580,7.0,1.0,240.0,,'1111122,1111122,1111122' 
COMPS,ioos:station:USF.COMPS:TAR:1,2013-01-03T05:00:00Z,28.1560,-82.7580,7.0,1.0,140.0,,'1111122,1111122,1111122' 
COMPS,ioos:station:USF.COMPS:TAR:1,2013-01-03T06:00:00Z,28.1560,-82.7580,7.0,0.5,190.0,,'1111122,1111122,1111122' 
COMPS,ioos:station:USF.COMPS:TAR:1,2013-01-03T07:00:00Z,28.1560,-82.7580,7.0,1.0,150.0,,'1111122,1111122,1111122' 
COMPS,ioos:station:USF.COMPS:TAR:1,2013-01-03T08:00:00Z,28.1560,-82.7580,7.0,1.0,130.0,,'1111122,1111122,1111122' 
COMPS,ioos:station:USF.COMPS:TAR:1,2013-01-03T09:00:00Z,28.1560,-82.7580,7.0,0.5,60.0,,'1111122,1111122,1111122' 
COMPS,ioos:station:USF.COMPS:TAR:1,2013-01-03T10:00:00Z,28.1560,-82.7580,7.0,1.5,10.0,,'1111122,1111122,1111122' 
COMPS,ioos:station:USF.COMPS:TAR:1,2013-01-03T11:00:00Z,28.1560,-82.7580,7.0,1.0,20.0,,'1111122,1111122,1111122' 
COMPS,ioos:station:USF.COMPS:TAR:1,2013-01-03T12:00:00Z,28.1560,-82.7580,7.0,1.0,40.0,,'1111122,1111122,1111122' 
COMPS,ioos:station:USF.COMPS:TAR:1,2013-01-03T13:00:00Z,28.1560,-82.7580,7.0,1.0,120.0,,'1111122,1111122,1111122' 
COMPS,ioos:station:USF.COMPS:TAR:1,2013-01-03T14:00:00Z,28.1560,-82.7580,7.0,2.1,160.0,,'1111122,1111122,1111122' 
COMPS,ioos:station:USF.COMPS:TAR:1,2013-01-03T15:00:00Z,28.1560,-82.7580,7.0,2.6,160.0,,'1111122,1111122,1111122' 
COMPS,ioos:station:USF.COMPS:TAR:1,2013-01-03T16:00:00Z,28.1560,-82.7580,7.0,2.1,140.0,,'1111122,1111122,1111122' 
COMPS,ioos:station:USF.COMPS:TAR:1,2013-01-03T18:00:00Z,28.1560,-82.7580,7.0,1.0,340.0,,'1111122,1111122,1111122' 
COMPS,ioos:station:USF.COMPS:TAR:1,2013-01-03T19:00:00Z,28.1560,-82.7580,7.0,4.1,350.0,,'1111122,1111122,1111122' 
COMPS,ioos:station:USF.COMPS:TAR:1,2013-01-03T20:00:00Z,28.1560,-82.7580,7.0,4.1,350.0,,'1111122,1111122,1111122' 
COMPS,ioos:station:USF.COMPS:TAR:1,2013-01-03T21:00:00Z,28.1560,-82.7580,7.0,5.1,360.0,,'1111122,1111122,1111122' 
COMPS,ioos:station:USF.COMPS:TAR:1,2013-01-03T22:00:00Z,28.1560,-82.7580,7.0,4.1,350.0,,'1111122,1111122,1111122' 
COMPS,ioos:station:USF.COMPS:TAR:1,2013-01-03T23:00:00Z,28.1560,-82.7580,7.0,3.1,10.0,,'1111122,1111122,1111122' 
COMPS,ioos:station:USF.COMPS:TAR:1,2013-01-04T00:00:00Z,28.1560,-82.7580,7.0,4.1,20.0,,'1111122,1111122,1111122' 
COMPS,ioos:station:USF.COMPS:TAR:1,2013-01-04T01:00:00Z,28.1560,-82.7580,7.0,4.6,30.0,,'1111122,1111122,1111122' 
COMPS,ioos:station:USF.COMPS:TAR:1,2013-01-04T02:00:00Z,28.1560,-82.7580,7.0,3.1,40.0,,'1111122,1111122,1111122' 
COMPS,ioos:station:USF.COMPS:TAR:1,2013-01-04T03:00:00Z,28.1560,-82.7580,7.0,3.1,30.0,,'1111122,1111122,1111122' 
COMPS,ioos:station:USF.COMPS:TAR:1,2013-01-04T04:00:00Z,28.1560,-82.7580,7.0,2.1,40.0,,'1111122,1111122,1111122' 
COMPS,ioos:station:USF.COMPS:TAR:1,2013-01-04T05:00:00Z,28.1560,-82.7580,7.0,3.1,20.0,,'1111122,1111122,1111122' 
COMPS,ioos:station:USF.COMPS:TAR:1,2013-01-04T06:00:00Z,28.1560,-82.7580,7.0,3.6,10.0,,'1111122,1111122,1111122' 
COMPS,ioos:station:USF.COMPS:TAR:1,2013-01-04T07:00:00Z,28.1560,-82.7580,7.0,3.6,10.0,,'1111122,1111122,1111122' 
COMPS,ioos:station:USF.COMPS:TAR:1,2013-01-04T08:00:00Z,28.1560,-82.7580,7.0,3.1,30.0,,'1111122,1111122,1111122' 
COMPS,ioos:station:USF.COMPS:TAR:1,2013-01-04T09:00:00Z,28.1560,-82.7580,7.0,3.1,20.0,,'1111122,1111122,1111122' 
COMPS,ioos:station:USF.COMPS:TAR:1,2013-01-04T10:00:00Z,28.1560,-82.7580,7.0,2.6,20.0,,'1111122,1111122,1111122' 
COMPS,ioos:station:USF.COMPS:TAR:1,2013-01-04T11:00:00Z,28.1560,-82.7580,7.0,3.1,10.0,,'1111122,1111122,1111122' 
COMPS,ioos:station:USF.COMPS:TAR:1,2013-01-04T12:00:00Z,28.1560,-82.7580,7.0,2.6,10.0,,'1111122,1111122,1111122' 
COMPS,ioos:station:USF.COMPS:TAR:1,2013-01-04T13:00:00Z,28.1560,-82.7580,7.0,2.1,40.0,,'1111122,1111122,1111122' 
COMPS,ioos:station:USF.COMPS:TAR:1,2013-01-04T14:00:00Z,28.1560,-82.7580,7.0,2.1,50.0,,'1111122,1111122,1111122' 
COMPS,ioos:station:USF.COMPS:TAR:1,2013-01-04T15:00:00Z,28.1560,-82.7580,7.0,2.1,40.0,,'1111122,1111122,1111122' 
COMPS,ioos:station:USF.COMPS:TAR:1,2013-01-04T16:00:00Z,28.1560,-82.7580,7.0,2.6,40.0,,'1111122,1111122,1111122' 
COMPS,ioos:station:USF.COMPS:TAR:1,2013-01-04T17:00:00Z,28.1560,-82.7580,7.0,2.1,30.0,,'1111122,1111122,1111122' 
COMPS,ioos:station:USF.COMPS:TAR:1,2013-01-04T18:00:00Z,28.1560,-82.7580,7.0,2.6,360.0,,'1111122,1111122,1111122' 
COMPS,ioos:station:USF.COMPS:TAR:1,2013-01-04T19:00:00Z,28.1560,-82.7580,7.0,2.6,10.0,,'1111122,1111122,1111122' 
COMPS,ioos:station:USF.COMPS:TAR:1,2013-01-04T20:00:00Z,28.1560,-82.7580,7.0,2.6,360.0,,'1111122,1111122,1111122' 
COMPS,ioos:station:USF.COMPS:TAR:1,2013-01-04T21:00:00Z,28.1560,-82.7580,7.0,2.6,360.0,,'1111122,1111122,1111122' 
COMPS,ioos:station:USF.COMPS:TAR:1,2013-01-04T22:00:00Z,28.1560,-82.7580,7.0,2.6,360.0,,'1111122,1111122,1111122' 
COMPS,ioos:station:USF.COMPS:TAR:1,2013-01-04T23:00:00Z,28.1560,-82.7580,7.0,2.6,10.0,,'1111122,1111122,1111122' 
COMPS,ioos:station:USF.COMPS:TAR:1,2013-01-05T00:00:00Z,28.1560,-82.7580,7.0,1.5,20.0,,'1111122,1111122,1111122' 
COMPS,ioos:station:USF.COMPS:TAR:1,2013-01-05T01:00:00Z,28.1560,-82.7580,7.0,1.5,30.0,,'1111122,1111122,1111122' 
COMPS,ioos:station:USF.COMPS:TAR:1,2013-01-05T02:00:00Z,28.1560,-82.7580,7.0,2.1,10.0,,'1111122,1111122,1111122' 
COMPS,ioos:station:USF.COMPS:TAR:1,2013-01-05T03:00:00Z,28.1560,-82.7580,7.0,1.5,100.0,,'1111122,1111122,1111122' 
COMPS,ioos:station:USF.COMPS:TAR:1,2013-01-05T04:00:00Z,28.1560,-82.7580,7.0,0.5,60.0,,'1111122,1111122,1111122' 
COMPS,ioos:station:USF.COMPS:TAR:1,2013-01-05T05:00:00Z,28.1560,-82.7580,7.0,3.6,10.0,,'1111122,1111122,1111122' 
COMPS,ioos:station:USF.COMPS:TAR:1,2013-01-05T06:00:00Z,28.1560,-82.7580,7.0,2.1,20.0,,'1111122,1111122,1111122' 
COMPS,ioos:station:USF.COMPS:TAR:1,2013-01-05T07:00:00Z,28.1560,-82.7580,7.0,3.1,30.0,,'1111122,1111122,1111122' 
COMPS,ioos:station:USF.COMPS:TAR:1,2013-01-05T08:00:00Z,28.1560,-82.7580,7.0,2.1,20.0,,'1111122,1111122,1111122' 
COMPS,ioos:station:USF.COMPS:TAR:1,2013-01-05T09:00:00Z,28.1560,-82.7580,7.0,3.1,30.0,,'1111122,1111122,1111122' 
COMPS,ioos:station:USF.COMPS:TAR:1,2013-01-05T10:00:00Z,28.1560,-82.7580,7.0,3.6,40.0,,'1111122,1111122,1111122' 
COMPS,ioos:station:USF.COMPS:TAR:1,2013-01-05T11:00:00Z,28.1560,-82.7580,7.0,2.1,30.0,,'1111122,1111122,1111122' 
COMPS,ioos:station:USF.COMPS:TAR:1,2013-01-05T12:00:00Z,28.1560,-82.7580,7.0,2.6,40.0,,'1111122,1111122,1111122' 
COMPS,ioos:station:USF.COMPS:TAR:1,2013-01-05T13:00:00Z,28.1560,-82.7580,7.0,2.1,40.0,,'1111122,1111122,1111122' 
COMPS,ioos:station:USF.COMPS:TAR:1,2013-01-05T14:00:00Z,28.1560,-82.7580,7.0,2.1,50.0,,'1111122,1111122,1111122' 
COMPS,ioos:station:USF.COMPS:TAR:1,2013-01-05T15:00:00Z,28.1560,-82.7580,7.0,2.6,50.0,,'1111122,1111122,1111122' 
COMPS,ioos:station:USF.COMPS:TAR:1,2013-01-05T16:00:00Z,28.1560,-82.7580,7.0,2.1,50.0,,'1111122,1111122,1111122' 
COMPS,ioos:station:USF.COMPS:TAR:1,2013-01-05T17:00:00Z,28.1560,-82.7580,7.0,1.5,60.0,,'1111122,1111122,1111122' 
COMPS,ioos:station:USF.COMPS:TAR:1,2013-01-05T18:00:00Z,28.1560,-82.7580,7.0,2.6,30.0,,'1111122,1111122,1111122' 
COMPS,ioos:station:USF.COMPS:TAR:1,2013-01-05T19:00:00Z,28.1560,-82.7580,7.0,1.5,30.0,,'1111122,1111122,1111122' 
COMPS,ioos:station:USF.COMPS:TAR:1,2013-01-05T20:00:00Z,28.1560,-82.7580,7.0,1.0,20.0,,'1111122,1111122,1111122' 
COMPS,ioos:station:USF.COMPS:TAR:1,2013-01-05T21:00:00Z,28.1560,-82.7580,7.0,2.6,340.0,,'1111122,1111122,1111122' 
COMPS,ioos:station:USF.COMPS:TAR:1,2013-01-05T22:00:00Z,28.1560,-82.7580,7.0,0.5,350.0,,'1111122,1111122,1111122' 
COMPS,ioos:station:USF.COMPS:TAR:1,2013-01-05T23:00:00Z,28.1560,-82.7580,7.0,1.0,340.0,,'1111122,1111122,1111122' 
COMPS,ioos:station:USF.COMPS:TAR:1,2013-01-06T00:00:00Z,28.1560,-82.7580,7.0,2.6,330.0,,'1111122,1111122,1111122' 
COMPS,ioos:station:USF.COMPS:TAR:1,2013-01-06T01:00:00Z,28.1560,-82.7580,7.0,2.6,360.0,,'1111122,1111122,1111122' 
COMPS,ioos:station:USF.COMPS:TAR:1,2013-01-06T02:00:00Z,28.1560,-82.7580,7.0,1.5,20.0,,'1111122,1111122,1111122' 
COMPS,ioos:station:USF.COMPS:TAR:1,2013-01-06T03:00:00Z,28.1560,-82.7580,7.0,1.0,30.0,,'1111122,1111122,1111122' 
COMPS,ioos:station:USF.COMPS:TAR:1,2013-01-06T04:00:00Z,28.1560,-82.7580,7.0,1.0,20.0,,'1111122,1111122,1111122' 
COMPS,ioos:station:USF.COMPS:TAR:1,2013-01-06T05:00:00Z,28.1560,-82.7580,7.0,1.0,40.0,,'1111122,1111122,1111122' 
COMPS,ioos:station:USF.COMPS:TAR:1,2013-01-06T06:00:00Z,28.1560,-82.7580,7.0,1.0,60.0,,'1111122,1111122,1111122' 
COMPS,ioos:station:USF.COMPS:TAR:1,2013-01-06T07:00:00Z,28.1560,-82.7580,7.0,1.0,40.0,,'1111122,1111122,1111122' 
COMPS,ioos:station:USF.COMPS:TAR:1,2013-01-06T08:00:00Z,28.1560,-82.7580,7.0,0.5,90.0,,'1111122,1111122,1111122' 
COMPS,ioos:station:USF.COMPS:TAR:1,2013-01-06T10:00:00Z,28.1560,-82.7580,7.0,1.0,100.0,,'1111122,1111122,1111122' 
COMPS,ioos:station:USF.COMPS:TAR:1,2013-01-06T11:00:00Z,28.1560,-82.7580,7.0,1.0,100.0,,'1111122,1111122,1111122' 
COMPS,ioos:station:USF.COMPS:TAR:1,2013-01-06T12:00:00Z,28.1560,-82.7580,7.0,1.5,120.0,,'1111122,1111122,1111122' 
COMPS,ioos:station:USF.COMPS:TAR:1,2013-01-06T13:00:00Z,28.1560,-82.7580,7.0,1.5,110.0,,'1111122,1111122,1111122' 
COMPS,ioos:station:USF.COMPS:TAR:1,2013-01-06T14:00:00Z,28.1560,-82.7580,7.0,1.5,100.0,,'1111122,1111122,1111122' 
COMPS,ioos:station:USF.COMPS:TAR:1,2013-01-06T15:00:00Z,28.1560,-82.7580,7.0,1.5,130.0,,'1111122,1111122,1111122' 
COMPS,ioos:station:USF.COMPS:TAR:1,2013-01-06T16:00:00Z,28.1560,-82.7580,7.0,1.5,150.0,,'1111122,1111122,1111122' 
COMPS,ioos:station:USF.COMPS:TAR:1,2013-01-06T17:00:00Z,28.1560,-82.7580,7.0,1.5,150.0,,'1111122,1111122,1111122' 
COMPS,ioos:station:USF.COMPS:TAR:1,2013-01-06T18:00:00Z,28.1560,-82.7580,7.0,2.1,220.0,,'1111122,1111122,1111122' 
COMPS,ioos:station:USF.COMPS:TAR:1,2013-01-06T19:00:00Z,28.1560,-82.7580,7.0,2.1,290.0,,'1111122,1111122,1111122' 
COMPS,ioos:station:USF.COMPS:TAR:1,2013-01-06T20:00:00Z,28.1560,-82.7580,7.0,3.1,330.0,,'1111122,1111122,1111122' 
COMPS,ioos:station:USF.COMPS:TAR:1,2013-01-06T21:00:00Z,28.1560,-82.7580,7.0,2.1,290.0,,'1111122,1111122,1111122' 
COMPS,ioos:station:USF.COMPS:TAR:1,2013-01-06T22:00:00Z,28.1560,-82.7580,7.0,1.0,330.0,,'1111122,1111122,1111122' 
COMPS,ioos:station:USF.COMPS:TAR:1,2013-01-06T23:00:00Z,28.1560,-82.7580,7.0,1.5,320.0,,'1111122,1111122,1111122' 
COMPS,ioos:station:USF.COMPS:TAR:1,2013-01-07T01:00:00Z,28.1560,-82.7580,7.0,2.1,10.0,,'1111122,1111122,1111122' 
COMPS,ioos:station:USF.COMPS:TAR:1,2013-01-07T02:00:00Z,28.1560,-82.7580,7.0,2.1,360.0,,'1111122,1111122,1111122' 
COMPS,ioos:station:USF.COMPS:TAR:1,2013-01-07T03:00:00Z,28.1560,-82.7580,7.0,2.1,10.0,,'1111122,1111122,1111122' 
COMPS,ioos:station:USF.COMPS:TAR:1,2013-01-07T04:00:00Z,28.1560,-82.7580,7.0,3.1,340.0,,'1111122,1111122,1111122' 
COMPS,ioos:station:USF.COMPS:TAR:1,2013-01-07T05:00:00Z,28.1560,-82.7580,7.0,1.5,30.0,,'1111122,1111122,1111122' 
COMPS,ioos:station:USF.COMPS:TAR:1,2013-01-07T06:00:00Z,28.1560,-82.7580,7.0,2.6,10.0,,'1111122,1111122,1111122' 
COMPS,ioos:station:USF.COMPS:TAR:1,2013-01-07T07:00:00Z,28.1560,-82.7580,7.0,2.6,40.0,,'1111122,1111122,1111122' 
COMPS,ioos:station:USF.COMPS:TAR:1,2013-01-07T08:00:00Z,28.1560,-82.7580,7.0,3.6,20.0,,'1111122,1111122,1111122' 
COMPS,ioos:station:USF.COMPS:TAR:1,2013-01-07T09:00:00Z,28.1560,-82.7580,7.0,2.1,30.0,,'1111122,1111122,1111122' 
COMPS,ioos:station:USF.COMPS:TAR:1,2013-01-07T10:00:00Z,28.1560,-82.7580,7.0,3.6,30.0,,'1111122,1111122,1111122' 
COMPS,ioos:station:USF.COMPS:TAR:1,2013-01-07T11:00:00Z,28.1560,-82.7580,7.0,2.6,30.0,,'1111122,1111122,1111122' 
COMPS,ioos:station:USF.COMPS:TAR:1,2013-01-07T12:00:00Z,28.1560,-82.7580,7.0,3.6,30.0,,'1111122,1111122,1111122' 
COMPS,ioos:station:USF.COMPS:TAR:1,2013-01-07T13:00:00Z,28.1560,-82.7580,7.0,4.1,40.0,,'1111122,1111122,1111122' 
COMPS,ioos:station:USF.COMPS:TAR:1,2013-01-07T14:00:00Z,28.1560,-82.7580,7.0,4.1,40.0,,'1111122,1111122,1111122' 
COMPS,ioos:station:USF.COMPS:TAR:1,2013-01-07T15:00:00Z,28.1560,-82.7580,7.0,3.1,70.0,,'1111122,1111122,1111122' 
COMPS,ioos:station:USF.COMPS:TAR:1,2013-01-07T16:00:00Z,28.1560,-82.7580,7.0,2.6,80.0,,'1111122,1111122,1111122' 
COMPS,ioos:station:USF.COMPS:TAR:1,2013-01-07T17:00:00Z,28.1560,-82.7580,7.0,2.1,80.0,,'1111122,1111122,1111122' 
COMPS,ioos:station:USF.COMPS:TAR:1,2013-01-07T18:00:00Z,28.1560,-82.7580,7.0,2.1,70.0,,'1111122,1111122,1111122' 
COMPS,ioos:station:USF.COMPS:TAR:1,2013-01-07T19:00:00Z,28.1560,-82.7580,7.0,1.5,60.0,,'1111122,1111122,1111122' 
COMPS,ioos:station:USF.COMPS:TAR:1,2013-01-07T20:00:00Z,28.1560,-82.7580,7.0,1.0,60.0,,'1111122,1111122,1111122' 
COMPS,ioos:station:USF.COMPS:TAR:1,2013-01-07T21:00:00Z,28.1560,-82.7580,7.0,2.1,60.0,,'1111122,1111122,1111122' 
COMPS,ioos:station:USF.COMPS:TAR:1,2013-01-07T22:00:00Z,28.1560,-82.7580,7.0,3.1,50.0,,'1111122,1111122,1111122' 
COMPS,ioos:station:USF.COMPS:TAR:1,2013-01-07T23:00:00Z,28.1560,-82.7580,7.0,3.1,50.0,,'1111122,1111122,1111122' 
COMPS,ioos:station:USF.COMPS:TAR:1,2013-01-08T00:00:00Z,28.1560,-82.7580,7.0,2.1,50.0,,'1111122,1111122,1111122' 
COMPS,ioos:station:USF.COMPS:TAR:1,2013-01-08T01:00:00Z,28.1560,-82.7580,7.0,2.1,60.0,,'1111122,1111122,1111122' 
COMPS,ioos:station:USF.COMPS:TAR:1,2013-01-08T02:00:00Z,28.1560,-82.7580,7.0,2.1,50.0,,'1111122,1111122,1111122' 
COMPS,ioos:station:USF.COMPS:TAR:1,2013-01-08T03:00:00Z,28.1560,-82.7580,7.0,1.5,50.0,,'1111122,1111122,1111122' 
COMPS,ioos:station:USF.COMPS:TAR:1,2013-01-08T04:00:00Z,28.1560,-82.7580,7.0,2.1,50.0,,'1111122,1111122,1111122' 
COMPS,ioos:station:USF.COMPS:TAR:1,2013-01-08T05:00:00Z,28.1560,-82.7580,7.0,1.5,80.0,,'1111122,1111122,1111122' 
COMPS,ioos:station:USF.COMPS:TAR:1,2013-01-08T06:00:00Z,28.1560,-82.7580,7.0,1.5,60.0,,'1111122,1111122,1111122' 
COMPS,ioos:station:USF.COMPS:TAR:1,2013-01-08T07:00:00Z,28.1560,-82.7580,7.0,1.5,50.0,,'1111122,1111122,1111122' 
COMPS,ioos:station:USF.COMPS:TAR:1,2013-01-08T08:00:00Z,28.1560,-82.7580,7.0,1.5,40.0,,'1111122,1111122,1111122' 
COMPS,ioos:station:USF.COMPS:TAR:1,2013-01-08T09:00:00Z,28.1560,-82.7580,7.0,1.5,40.0,,'1111122,1111122,1111122' 
COMPS,ioos:station:USF.COMPS:TAR:1,2013-01-08T10:00:00Z,28.1560,-82.7580,7.0,1.0,60.0,,'1111122,1111122,1111122' 
COMPS,ioos:station:USF.COMPS:TAR:1,2013-01-08T11:00:00Z,28.1560,-82.7580,7.0,1.0,40.0,,'1111122,1111122,1111122' 
COMPS,ioos:station:USF.COMPS:TAR:1,2013-01-08T12:00:00Z,28.1560,-82.7580,7.0,1.0,10.0,,'1111122,1111122,1111122' 
COMPS,ioos:station:USF.COMPS:TAR:1,2013-01-08T14:00:00Z,28.1560,-82.7580,7.0,1.5,40.0,,'1111122,1111122,1111122' 
COMPS,ioos:station:USF.COMPS:TAR:1,2013-01-08T15:00:00Z,28.1560,-82.7580,7.0,1.5,60.0,,'1111122,1111122,1111122' 
COMPS,ioos:station:USF.COMPS:TAR:1,2013-01-08T16:00:00Z,28.1560,-82.7580,7.0,2.1,40.0,,'1111122,1111122,1111122' 
COMPS,ioos:station:USF.COMPS:TAR:1,2013-01-08T17:00:00Z,28.1560,-82.7580,7.0,1.5,100.0,,'1111122,1111122,1111122' 
COMPS,ioos:station:USF.COMPS:TAR:1,2013-01-08T18:00:00Z,28.1560,-82.7580,7.0,1.5,60.0,,'1111122,1111122,1111122' 
COMPS,ioos:station:USF.COMPS:TAR:1,2013-01-08T19:00:00Z,28.1560,-82.7580,7.0,2.1,50.0,,'1111122,1111122,1111122' 
COMPS,ioos:station:USF.COMPS:TAR:1,2013-01-08T20:00:00Z,28.1560,-82.7580,7.0,2.1,50.0,,'1111122,1111122,1111122' 
COMPS,ioos:station:USF.COMPS:TAR:1,2013-01-08T21:00:00Z,28.1560,-82.7580,7.0,2.1,100.0,,'1111122,1111122,1111122' 
COMPS,ioos:station:USF.COMPS:TAR:1,2013-01-08T22:00:00Z,28.1560,-82.7580,7.0,0.5,60.0,,'1111122,1111122,1111122' 
COMPS,ioos:station:USF.COMPS:TAR:1,2013-01-08T23:00:00Z,28.1560,-82.7580,7.0,0.5,30.0,,'1111122,1111122,1111122' 
COMPS,ioos:station:USF.COMPS:TAR:1,2013-01-09T00:00:00Z,28.1560,-82.7580,7.0,1.0,40.0,,'1111122,1111122,1111122' 
COMPS,ioos:station:USF.COMPS:TAR:1,2013-01-09T01:00:00Z,28.1560,-82.7580,7.0,1.5,40.0,,'1111122,1111122,1111122' 
COMPS,ioos:station:USF.COMPS:TAR:1,2013-01-09T02:00:00Z,28.1560,-82.7580,7.0,1.0,50.0,,'1111122,1111122,1111122' 
COMPS,ioos:station:USF.COMPS:TAR:1,2013-01-09T03:00:00Z,28.1560,-82.7580,7.0,1.0,70.0,,'1111122,1111122,1111122' 
COMPS,ioos:station:USF.COMPS:TAR:1,2013-01-09T04:00:00Z,28.1560,-82.7580,7.0,1.5,90.0,,'1111122,1111122,1111122' 
COMPS,ioos:station:USF.COMPS:TAR:1,2013-01-09T05:00:00Z,28.1560,-82.7580,7.0,1.0,70.0,,'1111122,1111122,1111122' 
COMPS,ioos:station:USF.COMPS:TAR:1,2013-01-09T06:00:00Z,28.1560,-82.7580,7.0,1.0,80.0,,'1111122,1111122,1111122' 
COMPS,ioos:station:USF.COMPS:TAR:1,2013-01-09T07:00:00Z,28.1560,-82.7580,7.0,1.0,80.0,,'1111122,1111122,1111122' 
COMPS,ioos:station:USF.COMPS:TAR:1,2013-01-09T08:00:00Z,28.1560,-82.7580,7.0,1.0,100.0,,'1111122,1111122,1111122' 
COMPS,ioos:station:USF.COMPS:TAR:1,2013-01-09T09:00:00Z,28.1560,-82.7580,7.0,1.0,100.0,,'1111122,1111122,1111122' 
COMPS,ioos:station:USF.COMPS:TAR:1,2013-01-09T10:00:00Z,28.1560,-82.7580,7.0,0.5,80.0,,'1111122,1111122,1111122' 
COMPS,ioos:station:USF.COMPS:TAR:1,2013-01-09T11:00:00Z,28.1560,-82.7580,7.0,1.0,100.0,,'1111122,1111122,1111122' 
COMPS,ioos:station:USF.COMPS:TAR:1,2013-01-09T12:00:00Z,28.1560,-82.7580,7.0,1.5,100.0,,'1111122,1111122,1111122' 
COMPS,ioos:station:USF.COMPS:TAR:1,2013-01-09T13:00:00Z,28.1560,-82.7580,7.0,1.5,100.0,,'1111122,1111122,1111122' 
COMPS,ioos:station:USF.COMPS:TAR:1,2013-01-09T14:00:00Z,28.1560,-82.7580,7.0,2.1,90.0,,'1111122,1111122,1111122' 
COMPS,ioos:station:USF.COMPS:TAR:1,2013-01-09T15:00:00Z,28.1560,-82.7580,7.0,3.1,110.0,,'1111122,1111122,1111122' 
COMPS,ioos:station:USF.COMPS:TAR:1,2013-01-09T16:00:00Z,28.1560,-82.7580,7.0,2.1,110.0,,'1111122,1111122,1111122' 
COMPS,ioos:station:USF.COMPS:TAR:1,2013-01-09T17:00:00Z,28.1560,-82.7580,7.0,2.6,130.0,,'1111122,1111122,1111122' 
COMPS,ioos:station:USF.COMPS:TAR:1,2013-01-09T18:00:00Z,28.1560,-82.7580,7.0,2.6,170.0,,'1111122,1111122,1111122' 
COMPS,ioos:station:USF.COMPS:TAR:1,2013-01-09T19:00:00Z,28.1560,-82.7580,7.0,2.6,150.0,,'1111122,1111122,1111122' 
COMPS,ioos:station:USF.COMPS:TAR:1,2013-01-09T20:00:00Z,28.1560,-82.7580,7.0,2.6,140.0,,'1111122,1111122,1111122' 
COMPS,ioos:station:USF.COMPS:TAR:1,2013-01-09T21:00:00Z,28.1560,-82.7580,7.0,2.1,170.0,,'1111122,1111122,1111122' 
COMPS,ioos:station:USF.COMPS:TAR:1,2013-01-09T22:00:00Z,28.1560,-82.7580,7.0,1.5,100.0,,'1111122,1111122,1111122' 
COMPS,ioos:station:USF.COMPS:TAR:1,2013-01-09T23:00:00Z,28.1560,-82.7580,7.0,1.0,40.0,,'1111122,1111122,1111122' 
COMPS,ioos:station:USF.COMPS:TAR:1,2013-01-10T00:00:00Z,28.1560,-82.7580,7.0,0.5,10.0,,'1111122,1111122,1111122' 
COMPS,ioos:station:USF.COMPS:TAR:1,2013-01-10T01:00:00Z,28.1560,-82.7580,7.0,0.5,50.0,,'1111122,1111122,1111122' 
COMPS,ioos:station:USF.COMPS:TAR:1,2013-01-10T02:00:00Z,28.1560,-82.7580,7.0,1.0,40.0,,'1111122,1111122,1111122' 
COMPS,ioos:station:USF.COMPS:TAR:1,2013-01-10T03:00:00Z,28.1560,-82.7580,7.0,0.5,90.0,,'1111122,1111122,1111122' 
COMPS,ioos:station:USF.COMPS:TAR:1,2013-01-10T04:00:00Z,28.1560,-82.7580,7.0,1.0,90.0,,'1111122,1111122,1111122' 
COMPS,ioos:station:USF.COMPS:TAR:1,2013-01-10T05:00:00Z,28.1560,-82.7580,7.0,1.0,100.0,,'1111122,1111122,1111122' 
COMPS,ioos:station:USF.COMPS:TAR:1,2013-01-10T06:00:00Z,28.1560,-82.7580,7.0,1.0,110.0,,'1111122,1111122,1111122' 
COMPS,ioos:station:USF.COMPS:TAR:1,2013-01-10T07:00:00Z,28.1560,-82.7580,7.0,1.5,100.0,,'1111122,1111122,1111122' 
COMPS,ioos:station:USF.COMPS:TAR:1,2013-01-10T08:00:00Z,28.1560,-82.7580,7.0,1.5,90.0,,'1111122,1111122,1111122' 
COMPS,ioos:station:USF.COMPS:TAR:1,2013-01-10T22:00:00Z,28.1560,-82.7580,7.0,2.1,110.0,,'1111122,1111122,1111122' 
COMPS,ioos:station:USF.COMPS:TAR:1,2013-01-10T23:00:00Z,28.1560,-82.7580,7.0,1.0,100.0,,'1111122,1111122,1111122' 
COMPS,ioos:station:USF.COMPS:TAR:1,2013-01-11T00:00:00Z,28.1560,-82.7580,7.0,0.5,90.0,,'1111122,1111122,1111122' 
COMPS,ioos:station:USF.COMPS:TAR:1,2013-01-11T01:00:00Z,28.1560,-82.7580,7.0,1.0,100.0,,'1111122,1111122,1111122' 
COMPS,ioos:station:USF.COMPS:TAR:1,2013-01-11T03:00:00Z,28.1560,-82.7580,7.0,2.1,110.0,,'1111122,1111122,1111122' 
COMPS,ioos:station:USF.COMPS:TAR:1,2013-01-11T05:00:00Z,28.1560,-82.7580,7.0,1.5,120.0,,'1111122,1111122,1111122' 